Terminal Aerodrome Forecast
Issued by NWS Amarillo, TX

Home | Current Version | Previous Version | Text Only | Print | Product List | Glossary On
Versions: 1 2 3 4 5 6 7 8 9 10 11 12 13 14 15 16 17 18 19 20 21 22 23 24 25 26 27 28 29 30 31 32
000
FTUS44 KAMA 282300
TAFGUY
TAF
KGUY 282324Z 0100/0124 17008KT P6SM OVC020
     FM010500 16007KT 2SM -FZDZ BR OVC007
     FM011200 VRB05KT 1SM BR OVC004
     FM011800 03008KT 3SM BR OVC007=

USA.gov is the U.S. government's official web portal to all federal, state and local government web resources and services.